This is the latest recevied weather packets stored in our database for station/object N3SBK. If no packets are shown the sender has not sent any weather packets the latest 10 day(s).
| Time | Temp. | Humidity | Pressure | Rain* | Wind** | Luminosity | Snow |
|---|---|---|---|---|---|---|---|
| 1788031972 | 28.89° C | 38% | 1014.7 hPa | 0 mm | - | 524 W/m² | - |
| 1788031668 | 28.33° C | 38% | 1014.8 hPa | 0 mm | - | 530 W/m² | - |
| 1788031367 | 27.78° C | 44% | 1014.7 hPa | 0 mm | - | 545 W/m² | - |
| 1788031062 | 27.78° C | 40% | 1014.8 hPa | 0 mm | - | 554 W/m² | - |
| 1788030757 | 27.78° C | 41% | 1014.9 hPa | 0 mm | - | 566 W/m² | - |
| 1788030455 | 27.78° C | 44% | 1015 hPa | 0 mm | - | 574 W/m² | - |
| 1788030151 | 28.33° C | 42% | 1014.8 hPa | 0 mm | - | 583 W/m² | - |
| 1788029851 | 27.78° C | 46% | 1014.9 hPa | 0 mm | - | 591 W/m² | - |
| 1788029546 | 27.78° C | 43% | 1014.9 hPa | 0 mm | - | 600 W/m² | - |
| 1788029245 | 27.22° C | 42% | 1015 hPa | 0 mm | - | 606 W/m² | - |
| 1788028940 | 27.78° C | 42% | 1015.3 hPa | 0 mm | - | 614 W/m² | - |
| 1788028640 | 27.78° C | 43% | 1015.2 hPa | 0 mm | - | 622 W/m² | - |
| 1788028335 | 27.78° C | 41% | 1015.4 hPa | 0 mm | - | 626 W/m² | - |
| 1788028030 | 27.78° C | 44% | 1015.4 hPa | 0 mm | - | 636 W/m² | - |
| 1788027725 | 27.22° C | 41% | 1015.9 hPa | 0 mm | - | 639 W/m² | - |
| 1788027425 | 26.67° C | 45% | 1016 hPa | 0 mm | - | 645 W/m² | - |
| 1788027120 | 27.22° C | 41% | 1015.7 hPa | 0 mm | - | 652 W/m² | - |
| 1788026819 | 27.22° C | 42% | 1015.8 hPa | 0 mm | - | 652 W/m² | - |
| 1788026515 | 27.22° C | 46% | 1016 hPa | 0 mm | - | 657 W/m² | - |
| 1788026214 | 27.22° C | 43% | 1016 hPa | 0 mm | - | 664 W/m² | - |
| 1788025914 | 26.67° C | 43% | 1016 hPa | 0 mm | - | 667 W/m² | - |
| 1788025609 | 26.67° C | 50% | 1015.9 hPa | 0 mm | - | 674 W/m² | - |
| 1788025308 | 26.67° C | 40% | 1016 hPa | 0 mm | - | 674 W/m² | - |
| 1788025008 | 26.67° C | 49% | 1015.9 hPa | 0 mm | - | 678 W/m² | - |
| 1788024703 | 26.67° C | 45% | 1015.7 hPa | 0 mm | - | 678 W/m² | - |
* Rain latest hour (hover to see other rain measurements)
** Current wind speed in m/s (hover to see current wind gust speed)